Content
SEND FEEDBACK

Algeria Flag

EL ASNAM, ALGERIA


Home > Africa > Algeria
Elevation: 143 meters     Latitude: 36 13N     Longitude: 001 19E

WEATHER
 
SELECT A DAY
Number of Records: 96,090;   Date Range: 12/25/01 - 3/22/16
 
SHARE

PRINT THIS DATA

[ ← Previous Day ]
WEATHER ALMANAC - 31 JANUARY, 2013
[ Next Day → ]
[ °F ]   °C
Weather ElementAverageHighLow
Temperature13.2 °C21.1 °C (4:00 pm)8 °C (2:00 am)
Dewpoint5.6 °C9 °C (7:00 pm)3 °C (8:00 am)
Humidity59.6 %81 % (2:00 am)27 % (4:00 pm)
Barometer1030.8 hPa1033.2 hPa (10:00 am)1029.1 hPa (5:00 pm)
Wind Speed6.3 km/h22.2 km/h (10:00 am)
Weather ElementAverage
Visibility23 km
Wind DirectionENE (53.3 °)

Weather ElementTotal
Precipitation---
Heating Degree Days3.8 (Base 18.3)
Growing Degree Days4.6 (Base 10)
Averaged from 30 records on 31 January, 2013
WEATHER CONDITIONS BREAKOUT
WIND DIRECTION BREAKOUT
WEATHER BY HOUR - 31 JANUARY, 2013
[ °F ]   °C
Local TimeTemperatureDewpointHumidityBarometerVisibilityWind DirectionWind SpeedGust SpeedPrecipitationEventsConditions
1:00 AM9.4 °C5 °C67 %1030.5 hPa19.3 kmCalm
1:00 AM9 °C5 °C76 %1030.1 hPaCalmClear
2:00 AM8 °C5 °C81 %1030.1 hPaCalmClear
3:00 AM8 °C5 °C81 %1030.1 hPaCalmClear
4:00 AM8.9 °C4.4 °C64 %1030.8 hPa19.3 kmENE (60°)9.3 km/h
4:00 AM9 °C4 °C71 %1030.1 hPaENE (60°)9.3 km/hClear
5:00 AM8 °C4 °C76 %1030.1 hPaENE (60°)7.4 km/hClear
6:00 AM8 °C4 °C76 %1030.1 hPaENE (60°)9.3 km/hClear
7:00 AM8.9 °C3.3 °C60 %1031.2 hPa19.3 kmENE (60°)11.1 km/h
7:00 AM9 °C4 °C71 %1031.2 hPaENE (60°)11.1 km/hClear
8:00 AM8 °C3 °C71 %1031.2 hPaENE (60°)13 km/hClear
9:00 AM9 °C3 °C66 %1032.2 hPaNE (40°)18.5 km/hClear
10:00 AM10 °C4.4 °C59 %1033.2 hPa25.7 kmENE (60°)22.2 km/hClear
10:00 AM10 °C4 °C66 %1032.2 hPaENE (60°)22.2 km/hClear
11:00 AM13 °C5 °C58 %1033.2 hPaENE (60°)20.4 km/hClear
12:00 PM15 °C7 °C59 %1033.2 hPaEast (80°)5.6 km/hClear
1:00 PM17.8 °C6.7 °C37 %1032.8 hPa25.7 kmCalmClear
1:00 PM18 °C7 °C49 %1032.2 hPaCalmClear
2:00 PM20 °C8 °C46 %1031.2 hPaCalmClear
3:00 PM21 °C8 °C43 %1030.1 hPaCalmClear
4:00 PM21.1 °C6.1 °C27 %1030.5 hPa25.7 kmWSW (240°)9.3 km/hClear
4:00 PM21 °C6 °C38 %1030.1 hPaWSW (240°)9.3 km/hClear
5:00 PM21 °C6 °C38 %1029.1 hPaWSW (240°)11.1 km/hClear
6:00 PM20 °C7 °C43 %1030.1 hPaCalmClear
7:00 PM17 °C9 °C59 %1029.1 hPaCalmClear
8:00 PM16 °C7 °C55 %1030.1 hPaCalmClear
9:00 PM14 °C8 °C67 %1030.1 hPaCalmClear
10:00 PM12.8 °C6.1 °C54 %1030.5 hPa25.7 kmCalm
10:00 PM13 °C6 °C63 %1030.1 hPaCalmClear
11:00 PM12 °C6 °C67 %1030.1 hPaCalmClear
Hourly data recorded from DAOI, located 0 kilometers away from El Asnam, Algeria




STORIES FROM OUR PARTNERS